Погода в Лизино

Украина / Луганская область     49°31′58″N   38°50′37″E
темп.,
°C
ветер,
м/с
пор.,
м/с
влажн.,
%
обл.,
%
осадки,
мм/ч
давл.,
гПа
погр.,
м
21 января, пт
пт2123:00−8ю51286100 0.0 1016263
02:00−7ююв61493100 0.1 1013390
05:00−6ююв81894100 0.3 1009476
08:00−3ю81796100 2.3 1007652
11:000юз61090100 0.5 1007726
14:00−1юз7129592 0.6 1007776
17:00−4юз4109145 0.1 1009213
20:00−8ююз399598 0.1 1010124
22 января, сб
сб2223:00−9ююз49945 0.0 1011119
02:00−10ююз399634 0.0 1011116
05:00−10ююз389747 0.0 1011107
08:00−10ююз389755 0.0 1012126
11:00−6ююз499367 0.0 1013349
14:00−4ююз499233 0.0 1013424
17:00−10ююз229790 0.0 101514
20:00−6ю2496100 0.1 1016118
23 января, вс
вс2323:00−6ю2394100 0.0 101761
02:00−10вюв1197100 0.0 101810
05:00−11всв1197100 0.0 101910
08:00−8св2596100 0.0 102090
11:00−5св4793100 0.0 1021253
14:00−5ссв51193100 0.0 1021469
17:00−5ссв61392100 0.1 1021562
20:00−5ссв71495100 0.9 1020528
24 января, пн
пн2423:00−3ссв61396100 1.7 1020450
02:00−3всв61196100 2.4 1020473
05:00−4всв6119597 0.4 1021413
08:00−6всв5109596 0.6 1024303
11:00−5всв5893100 0.1 1025373
14:00−4св5894100 0.3 1025386
17:00−5св5995100 0.1 1026288
20:00−6всв5996100 0.7 1026333
25 января, вт
вт2523:00−6всв4896100 1.0 1026265
02:00−7всв3796100 1.5 1025206
05:00−7св369697 0.5 1024184
08:00−7всв259769 0.9 1025144
11:00−4в239391 0.1 1024260
14:00−3юв2390100 0.2 1023406
17:00−7вюв229987 0.1 102313
20:00−4ююв2498100 0.3 1023124